COSMOS 2251 DEB, 37491

Orbit data source: Space-Track

COSMOS 2251 DEB, 37491 is space debris in LEO originally from a launch on Wed, 16 Jun 1993 UTC launched from the Plesetsk Missile And Space Complex (PKMTR). The debris from Iridium 33, an American commercial communications satellite, has been tracked extensively since its accidental collision with the defunct Russian satellite Cosmos 2251 in 2009. This event, occurring at high speed in low Earth orbit (LEO), generated thousands of pieces of space debris, significantly increasing the risk of further collisions. The Iridium 33 debris cloud has impacted space traffic management and orbital debris mitigation strategies, making it a subject of ongoing study in space situational awareness.

Loading next visibility...
Identifier
37491, 1993-036BLU
Orbit
LEO
Country
Flag of CISCIS
Related business
Manufacturer
Unknown
Mission
Spacecraft
Bus & Motor
Unknown
Mass
Unknown
Launch date (UTC)
1993-06-16 (33 years ago)
Launch vehicle
Unknown
Launch site
Plesetsk Missile And Space Complex (PKMTR)
Object type
Payload
Rocket body
Debris
Shape & HBR
Unknown shape, 0.1 m
Radar Cross Section
Small (<0.1 m²)

Expand to show TLE details & history
Last TLE update: 14 hours ago

TLE from 14 hours ago
0 COSMOS 2251 DEB
1 37491U 93036BLU 26061.57099369  .00001161  00000-0  86017-3 0  9992
2 37491  73.9060 140.2401 0311439 118.4699 244.8169 13.75575458568443
Epoch: 2026-03-02T13:42Z
TLE epoch observation values (Epoch: 2026-03-02T13:42:13.854Z)
Latitude
-0.00006°
Longitude
134.31986°
Altitude
1,085.409 km
Speed
7.258 km/s
True Right ascension
09h 20m 57s
True Declination
0° 00' 00"
Sunlit
Object was in full shadow at epoch
Visualization orbit readout
Latitude
Unknown
Longitude
Unknown
Altitude
Unknown
Speed
Unknown
Apparent Right ascension
Unknown
Apparent Declination
Unknown
Sunlit
N/A
Visualization observer readout
Local Sidereal Time
07:38:55
Azimuth
Unknown
Elevation
Unknown
Doppler factor
Unknown
Orbital elements
Apogee altitude
1,206.399 km
Perigee altitude
748.243 km
Semi-major axis
7,355.458 km
Eccentricity
0.03114
Inclination
73.906°
RAAN
140.2401°
Arg. of periapsis
118.4699°
True anomaly
241.64156°
Mean anomaly
244.8169°
Eccentric anomaly
243.22382°
Mean motion
3.44056 °/min
Orbital period
104.63 mins
BSTAR
0.00086017

Documentation

Showing up to 5 results
|